User: anonymous   Login
Location: Parc des �les de St-Timoth�e
(45.2924°N, 74.0481°W)
Time: 10:04:51
(UTC-05:00)
Language:

Cosmos 2173 Rocket - Orbit

View from above orbital plane
View from above orbital plane
View from above satellite
View from above satellite

Ground track
Ground track

The orbit data is extracted from the following two-line orbital elements,

1 21797U 91081B   17349.96667546 +.00000039 +00000-0 +24496-4 0  9999
2 21797 082.9543 287.1827 0036826 300.5733 127.8204 13.77424761309154
Epoch (UTC): 15 December 2017 23:12:00
Eccentricity: 0.0036826
inclination: 82.9543°
perigee height: 946 km
apogee height: 1000 km
right ascension of ascending node: 287.1827°
argument of perigee: 300.5733°
revolutions per day: 13.77424761
mean anomaly at epoch: 127.8204°
orbit number at epoch: 30915

The dashed part of the orbit path shows where the satellite is in the earth's shadow,  

DLR